Date,TemperatureHighF,TemperatureAvgF,TemperatureLowF,DewpointHighF,DewpointAvgF,DewpointLowF,HumidityHigh,HumidityAvg,HumidityLow,PressureMaxIn,PressureMinIn,WindSpeedMaxMPH,WindSpeedAvgMPH,GustSpeedMaxMPH,PrecipitationSumIn
2013-5-1,62,60,58,58,57,56,95,91,85,30.30,30.14,0,0,6,0.00
2013-5-2,67,60,56,59,56,53,96,88,75,30.30,30.24,0,0,4,0.00
2013-5-3,72,60,52,57,51,44,93,74,53,30.24,30.14,1,0,8,0.00
2013-5-4,69,57,50,54,50,44,88,76,56,30.19,30.05,1,0,9,0.00
2013-5-5,61,56,51,57,52,47,90,86,81,30.08,29.96,1,0,10,0.00
2013-5-6,72,62,57,66,59,54,98,92,75,29.98,29.81,1,0,8,1.07
2013-5-7,74,61,52,58,52,48,97,77,40,29.94,29.84,3,0,8,0.00
2013-5-8,75,63,54,60,56,50,96,79,52,30.00,29.92,3,0,6,0.33
2013-5-9,82,68,55,64,58,53,97,74,43,30.06,29.97,3,0,6,0.22
2013-5-10,87,74,58,64,60,54,95,64,38,30.06,29.94,3,0,9,0.00
2013-5-11,85,75,68,68,63,59,89,69,47,29.97,29.78,3,0,12,0.02
2013-5-12,76,68,58,63,52,37,92,60,35,30.01,29.79,3,0,7,0.03
2013-5-13,68,60,50,45,39,33,74,48,29,30.17,30.01,5,1,8,0.00
2013-5-14,73,59,43,46,40,34,93,54,27,30.25,30.08,2,0,7,0.00
2013-5-15,90,72,55,63,55,42,81,59,35,30.08,29.90,2,0,7,0.00
2013-5-16,88,76,67,66,61,57,80,63,36,29.98,29.89,2,0,8,0.00
2013-5-17,90,78,66,67,62,56,91,63,33,30.07,29.97,2,0,6,0.00
2013-5-18,83,73,65,70,65,61,91,75,52,30.14,30.06,1,0,5,0.05
2013-5-19,80,72,68,70,67,66,96,87,64,30.14,30.05,2,0,8,0.30
2013-5-20,78,72,68,71,69,67,98,90,75,30.11,30.02,2,0,7,0.32
2013-5-21,85,74,69,75,70,68,96,86,62,30.05,29.95,2,0,8,0.18
2013-5-22,86,76,68,70,68,64,95,78,53,30.03,29.91,3,0,10,0.00
2013-5-23,84,73,69,73,69,68,96,88,61,29.96,29.82,1,0,5,0.92
2013-5-24,74,66,55,68,55,41,97,72,38,30.17,29.80,6,1,9,0.00
2013-5-25,75,61,46,53,44,37,87,59,28,30.27,30.13,3,0,6,0.00
2013-5-26,75,63,52,53,48,41,82,60,35,30.26,30.17,2,0,6,0.00
2013-5-27,83,69,54,58,52,44,88,58,28,30.26,30.16,2,0,8,0.00
2013-5-28,86,74,62,68,63,58,92,69,48,30.25,30.15,3,0,9,0.00
2013-5-29,87,76,64,67,64,60,94,68,46,30.25,30.16,3,0,9,0.00
2013-5-30,89,77,64,68,64,59,95,67,41,30.27,30.16,2,0,8,0.00
2013-5-31,90,79,67,71,67,63,95,69,44,30.22,30.09,2,0,7,0.00